This is the latest recevied weather packets stored in our database for station/object K9ABJ. If no packets are shown the sender has not sent any weather packets the latest 10 day(s).
| Time | Temp. | Humidity | Pressure | Rain* | Wind** | Luminosity | Snow |
|---|---|---|---|---|---|---|---|
| 1788552199 | 27.78° C | 83% | 1013.3 hPa | 0 mm | - | 164 W/m² | - |
| 1788551899 | 27.78° C | 82% | 1012.8 hPa | 0 mm | - | 166 W/m² | - |
| 1788551597 | 27.22° C | 83% | 1012.6 hPa | 0 mm | - | 190 W/m² | - |
| 1788551292 | 27.78° C | 82% | 1012.8 hPa | 0 mm | - | 247 W/m² | - |
| 1788550992 | 27.78° C | 81% | 1012.7 hPa | 0 mm | - | 443 W/m² | - |
| 1788550687 | 27.78° C | 82% | 1012.8 hPa | 0 mm | - | 769 W/m² | - |
| 1788550382 | 27.22° C | 83% | 1013.1 hPa | 0 mm | - | 524 W/m² | - |
| 1788550077 | 27.22° C | 82% | 1013.7 hPa | 0 mm | - | 349 W/m² | - |
| 1788549773 | 27.22° C | 82% | 1014 hPa | 0 mm | - | 454 W/m² | - |
| 1788549469 | 27.22° C | 82% | 1014.2 hPa | 0 mm | - | 776 W/m² | - |
| 1788549166 | 27.22° C | 81% | 1014.6 hPa | 0 mm | - | 460 W/m² | - |
| 1788548862 | 27.22° C | 80% | 1014.4 hPa | 0 mm | - | 409 W/m² | - |
| 1788548558 | 27.78° C | 79% | 1014.9 hPa | 0 mm | - | 508 W/m² | - |
| 1788548254 | 27.78° C | 79% | 1015.1 hPa | 0 mm | - | 613 W/m² | - |
| 1788547954 | 27.78° C | 78% | 1015.7 hPa | 0 mm | - | 749 W/m² | - |
| 1788547652 | 27.22° C | 78% | 1015.8 hPa | 0 mm | - | 684 W/m² | - |
| 1788547349 | 26.67° C | 81% | 1016.6 hPa | 0 mm | - | 793 W/m² | - |
| 1788547044 | 26.67° C | 81% | 1016.9 hPa | 0 mm | - | 102 W/m² | - |
| 1788546745 | 27.22° C | 77% | 1017.5 hPa | 0 mm | - | 59 W/m² | - |
| 1788546440 | 27.22° C | 76% | 1017.3 hPa | 0 mm | - | 75 W/m² | - |
| 1788546163 | 27.22° C | 77% | 1017 hPa | 0 mm | - | 296 W/m² | - |
| 1788545830 | 27.22° C | 77% | 1017 hPa | 0 mm | - | 239 W/m² | - |
| 1788545530 | 27.22° C | 76% | 1017.3 hPa | 0 mm | - | 250 W/m² | - |
| 1788545226 | 27.78° C | 75% | 1017.5 hPa | 0 mm | - | 218 W/m² | - |
| 1788544921 | 27.78° C | 76% | 1017.3 hPa | 0 mm | - | 347 W/m² | - |
* Rain latest hour (hover to see other rain measurements)
** Current wind speed in m/s (hover to see current wind gust speed)